Location: Unspecified
(43.4680°N, 87.1740°E)
Time: 21:26:25
(UTC+00:00)

NOSS 0 Rocket - Pass Details

Date: 30 July 2021
Orbit: 936 x 954 km, 70.0° (Epoch: 22 September)

Event Time Altitude Azimuth Distance (km) Brightness Sun altitude
Rises 16:24:46 0° 339° (NNW) 3,638 8.4 -23.0°
Reaches altitude 10° 16:27:43 10° 351° (N) 2,687 7.3 -23.2°
Maximum altitude 16:33:01 28° 49° (NE) 1,702 5.4 -23.7°
Enters shadow 16:35:43 21° 88° (E) 2,005 5.4 -23.9°
